Newton, KS

9:09 AM CST on November 15, 2019 (GMT -0600)
Newton City County

Weather History for KEWK - August, 2019

Change the Weather History Date:

Thursday, August 1, 2019

  Actual Average Record
Temperature  
Mean Temperature 80 °F -  
Max Temperature 88 °F 87 °F 107 °F (2011)
Min Temperature 73 °F 67 °F 60 °F (1997)
Cooling Degree Days 16    
Growing Degree Days 30 (Base 50)    
Moisture  
Dew Point 70 °F    
Average Humidity 75    
Maximum Humidity 87    
Minimum Humidity 57    
Precipitation  
Precipitation 0.00 in - - ()
Sea Level Pressure  
Sea Level Pressure 29.99 in    
Wind  
Wind Speed 16 mph (SE)    
Max Wind Speed 24 mph    
Max Gust Speed 29 mph    
Visibility 10 miles    
Events      
Averages and records for this station are not official NWS values.
T = Trace of Precipitation, MM = Missing Value Source: NWS Daily Summary

Daily Weather History Graph

Daily Weather History Graph

Search for Another Location

Airport or City:

Astronomy

Aug. 01, 2019 Rise Set
Actual Time 6:31 AM CDT 8:38 PM CDT
Civil Twilight 6:02 AM CDT 9:07 PM CDT
Nautical Twilight 5:26 AM CDT 9:43 PM CDT
Astronomical Twilight 4:47 AM CDT 10:22 PM CDT
Moon 6:58 AM CDT (8/1) 9:27 PM CDT (8/1)
Length of Visible Light 15h 05m
Length of Day
14h 06m
New Moon, 1% of the Moon is Illuminated
Aug 1
New Moon
Aug 7
First Quarter
Aug 15
Full
Aug 23
Last Quarter
Aug 30
New

Hourly Weather History & Observations

Time (CDT) Temp. Heat Index Dew Point Humidity Pressure Visibility Wind Dir Wind Speed Gust Speed Precip Events Conditions
12:56 AM 77.0 °F - 70.0 °F 79% 29.97 in 10.0 mi ESE 12.7 mph - N/A   Unknown
1:56 AM 77.0 °F - 70.0 °F 79% 29.96 in 10.0 mi ESE 13.8 mph - N/A   Unknown
2:56 AM 77.0 °F - 70.0 °F 79% 29.95 in 10.0 mi SE 15.0 mph - N/A   Unknown
3:56 AM 75.0 °F - 70.0 °F 84% 29.98 in 10.0 mi ESE 18.4 mph - N/A   Unknown
4:56 AM 73.9 °F - 69.1 °F 85% 29.99 in 10.0 mi SE 17.3 mph - N/A   Unknown
5:56 AM 73.0 °F - 68.0 °F 84% 30.00 in 10.0 mi SE 17.3 mph 25.3 mph N/A   Unknown
6:56 AM 73.0 °F - 66.9 °F 81% 30.01 in 10.0 mi SE 19.6 mph - N/A   Unknown
7:56 AM 73.9 °F - 66.9 °F 79% 30.00 in 10.0 mi SE 19.6 mph 25.3 mph N/A   Unknown
8:56 AM 75.9 °F - 68.0 °F 76% 30.01 in 10.0 mi SE 19.6 mph 25.3 mph N/A   Unknown
9:56 AM 75.9 °F - 68.0 °F 76% 30.02 in 10.0 mi SSE 24.2 mph 28.8 mph N/A   Unknown
10:56 AM 79.0 °F - 69.1 °F 72% 30.04 in 10.0 mi SE 17.3 mph 26.5 mph N/A   Unknown
11:56 AM 82.0 °F 85.9 °F 70.0 °F 67% 30.04 in 10.0 mi SSE 19.6 mph 25.3 mph N/A   Unknown
12:56 PM 84.9 °F 90.1 °F 71.1 °F 63% 30.02 in 10.0 mi South 16.1 mph 24.2 mph N/A   Unknown
1:56 PM 86.0 °F 91.5 °F 71.1 °F 61% 30.00 in 10.0 mi SE 16.1 mph 23.0 mph N/A   Unknown
2:56 PM 87.1 °F 92.8 °F 71.1 °F 59% 29.99 in 10.0 mi SSE 13.8 mph - N/A   Unknown
3:56 PM 88.0 °F 93.8 °F 71.1 °F 57% 29.98 in 10.0 mi SSE 15.0 mph - N/A   Unknown
4:56 PM 86.0 °F 91.5 °F 71.1 °F 61% 29.99 in 10.0 mi SSW 10.4 mph - N/A   Unknown
5:56 PM 82.0 °F 87.4 °F 73.0 °F 74% 29.97 in 10.0 mi South 12.7 mph - 0.00 in   Unknown
6:56 PM 82.9 °F 88.0 °F 72.0 °F 69% 29.95 in 10.0 mi SE 17.3 mph - N/A   Unknown
7:56 PM 79.0 °F - 73.0 °F 82% 29.97 in 10.0 mi ESE 10.4 mph - 0.00 in   Unknown
8:56 PM 77.0 °F - 72.0 °F 84% 29.97 in 10.0 mi SE 16.1 mph - N/A   Unknown
9:56 PM 77.0 °F - 72.0 °F 84% 30.00 in 10.0 mi SE 15.0 mph - N/A   Unknown
10:56 PM 75.9 °F - 72.0 °F 87% 30.00 in 10.0 mi ESE 16.1 mph - N/A   Unknown
11:56 PM 75.9 °F - 71.1 °F 85% 30.00 in 10.0 mi ESE 15.0 mph - N/A   Unknown